DW4277 Weather Reports


Display with metric or nautical units.
time (UTC)temp
F
wind
direction
speed
MPH
gust
MPH
rain 1hr
in
rain 24hr
in
rain mn
in
humidity
%
barometer
mb
20260904173043 87 208 0.0 7.0 0.00 0.00 0.00 42 1010.4
20260904171540 88 208 0.0 1.0 0.00 0.00 0.00 40 1010.5
20260904170044 89 208 0.0 1.0 0.00 0.00 0.00 39 1010.7
20260904164535 89 208 0.0 10.0 0.00 0.00 0.00 38 1010.8
20260904163032 89 208 0.0 12.0 0.00 0.00 0.00 37 1010.9
20260904161533 90 188 5.0 15.0 0.00 0.00 0.00 37 1011.1
20260904160029 90 244 6.0 16.0 0.00 0.00 0.00 36 1011.3
20260904154529 90 217 6.0 15.0 0.00 0.00 0.00 37 1011.5
20260904153026 89 207 4.0 17.0 0.00 0.00 0.00 37 1011.6
20260904151525 90 230 0.0 11.0 0.00 0.00 0.00 36 1011.8
20260904150033 91 303 3.0 17.0 0.00 0.00 0.00 34 1011.9
20260904144521 90 325 2.0 15.0 0.00 0.00 0.00 35 1012.0
20260904143019 90 354 6.0 19.0 0.00 0.00 0.00 35 1012.3
20260904141526 91 329 0.0 27.0 0.00 0.00 0.00 35 1012.6
20260904140030 90 328 9.0 27.0 0.00 0.00 0.00 37 1012.8
20260904134509 89 350 19.0 36.0 0.00 0.00 0.00 38 1013.0
20260904133009 88 348 12.0 26.0 0.00 0.00 0.00 38 1013.2
20260904131503 88 324 20.0 35.0 0.00 0.00 0.00 39 1013.5
20260904130100 87 319 15.0 34.0 0.00 0.00 0.00 39 1013.7
20260904124605 86 316 18.0 39.0 0.00 0.00 0.00 40 1014.0
20260904123054 86 288 12.0 39.0 0.00 0.00 0.00 40 1014.2
20260904121550 86 346 25.0 43.0 0.00 0.00 0.00 41 1014.5
20260904120054 86 323 22.0 40.0 0.00 0.00 0.00 41 1014.7
20260904114547 84 337 28.0 49.0 0.00 0.00 0.00 42 1014.9
20260904113046 85 304 14.0 38.0 0.00 0.00 0.00 42 1015.1
20260904111542 85 321 24.0 45.0 0.00 0.00 0.00 42 1015.5
20260904110043 84 309 13.0 38.0 0.00 0.00 0.00 44 1015.8
20260904104536 83 308 17.0 34.0 0.00 0.00 0.00 45 1016.0
20260904103036 83 311 20.0 47.0 0.00 0.00 0.00 45 1016.2
20260904101531 83 332 19.0 49.0 0.00 0.00 0.00 45 1016.1
20260904100028 82 350 28.0 46.0 0.00 0.00 0.00 45 1016.2
20260904094537 81 317 27.0 57.0 0.00 0.00 0.00 46 1016.5
20260904093021 81 312 30.0 49.0 0.00 0.00 0.00 47 1016.8
20260904091516 80 338 18.0 46.0 0.00 0.00 0.00 50 1017.0
20260904090013 79 325 19.0 41.0 0.00 0.00 0.00 51 1017.4
20260904084511 79 321 22.0 45.0 0.00 0.00 0.00 52 1017.5
20260904083007 78 302 16.0 32.0 0.00 0.00 0.00 53 1017.6
20260904081506 77 330 14.0 24.0 0.00 0.00 0.00 54 1017.8
20260904080105 76 323 14.0 31.0 0.00 0.00 0.00 55 1017.9
20260904074600 76 342 17.0 27.0 0.00 0.00 0.00 55 1017.9
20260904073104 75 310 10.0 33.0 0.00 0.00 0.00 57 1017.9
20260904071553 75 330 9.0 32.0 0.00 0.00 0.00 58 1017.8
20260904070052 75 331 13.0 36.0 0.00 0.00 0.00 57 1017.9
20260904064601 75 313 13.0 23.0 0.00 0.00 0.00 57 1017.8
20260904063106 74 341 9.0 27.0 0.00 0.00 0.00 58 1017.8
20260904061547 74 327 16.0 31.0 0.00 0.00 0.00 58 1017.7
20260904054549 72 327 6.0 18.0 0.00 0.00 0.00 61 1017.6
20260904053041 72 338 0.0 17.0 0.00 0.00 0.00 61 1017.7
20260904051541 71 340 0.0 0.0 0.00 0.00 0.00 61 1017.6
20260904050043 71 340 0.0 0.0 0.00 0.00 0.00 61 1017.5
20260904044532 71 340 0.0 0.0 0.00 0.00 0.00 60 1017.5
20260904043030 71 340 0.0 0.0 0.00 0.00 0.00 60 1017.6
20260904041528 72 340 0.0 0.0 0.00 0.00 0.00 59 1017.6
20260904040039 72 340 6.0 14.0 0.00 0.00 0.00 58 1017.5
20260904034528 72 340 9.0 23.0 0.00 0.00 0.00 58 1017.5
20260904033026 72 329 10.0 18.0 0.00 0.00 0.00 59 1017.5
20260904031526 72 328 9.0 18.0 0.00 0.00 0.00 59 1017.5
20260904030025 72 331 9.0 22.0 0.00 0.00 0.00 60 1017.4
20260904024524 72 334 11.0 18.0 0.00 0.00 0.00 60 1017.6
20260904023023 71 332 12.0 22.0 0.00 0.00 0.00 61 1017.4
20260904021538 71 321 12.0 21.0 0.00 0.00 0.00 61 1017.4
20260904020020 71 323 12.0 19.0 0.00 0.00 0.00 62 1017.6
20260904014518 71 320 7.0 18.0 0.00 0.00 0.00 63 1017.6
20260904013016 70 329 8.0 16.0 0.00 0.00 0.00 63 1017.6
20260904011516 70 328 9.0 18.0 0.00 0.00 0.00 64 1017.8
20260904010014 70 315 13.0 22.0 0.00 0.00 0.00 64 1017.8
20260904004516 70 335 3.0 13.0 0.00 0.00 0.00 64 1018.0
20260904003021 70 335 5.0 19.0 0.00 0.00 0.00 63 1018.0
20260904001510 70 336 4.0 17.0 0.00 0.00 0.00 63 1018.2
20260904000010 70 336 1.0 15.0 0.00 0.00 0.00 64 1018.2
20260903234508 70 333 10.0 21.0 0.00 0.00 0.00 63 1018.3
20260903233006 70 336 3.0 15.0 0.00 0.00 0.00 64 1018.5
20260903231507 70 336 0.0 14.0 0.00 0.00 0.00 65 1018.6
20260903230004 70 336 0.0 0.0 0.00 0.00 0.00 65 1018.7
20260903224503 70 336 9.0 27.0 0.00 0.00 0.00 64 1018.7
20260903223001 70 322 11.0 23.0 0.00 0.00 0.00 63 1018.7
20260903221559 70 316 14.0 27.0 0.00 0.00 0.00 62 1018.7
20260903220059 71 329 14.0 25.0 0.00 0.00 0.00 61 1018.6
20260903214553 71 328 17.0 24.0 0.00 0.00 0.00 61 1018.7
20260903213108 71 331 14.0 25.0 0.00 0.00 0.00 60 1018.6
20260903211552 72 328 14.0 32.0 0.00 0.00 0.00 58 1018.5
20260903210052 72 336 16.0 33.0 0.00 0.00 0.00 58 1018.5
20260903204551 73 332 11.0 23.0 0.00 0.00 0.00 57 1018.6
20260903203055 74 314 20.0 35.0 0.00 0.00 0.00 55 1018.4
20260903201551 74 329 23.0 39.0 0.00 0.00 0.00 53 1018.1
20260903200050 75 346 16.0 36.0 0.00 0.00 0.00 51 1018.1
20260903194549 76 334 13.0 22.0 0.00 0.00 0.00 50 1017.9
20260903193049 76 333 12.0 25.0 0.00 0.00 0.00 49 1017.6
20260903191549 76 352 11.0 21.0 0.00 0.00 0.00 48 1017.4
20260903190049 77 342 12.0 24.0 0.00 0.00 0.00 47 1017.6
20260903184550 77 337 12.0 22.0 0.00 0.00 0.00 47 1017.5
20260903183047 77 333 14.0 25.0 0.00 0.00 0.00 46 1017.2
20260903181546 77 344 10.0 21.0 0.00 0.00 0.00 46 1017.2
20260903180046 77 348 12.0 21.0 0.00 0.00 0.00 45 1016.8
20260903174545 78 330 12.0 21.0 0.00 0.00 0.00 45 1016.9